TimeEDT,TemperatureF,Dew PointF,Humidity,Sea Level PressureIn,VisibilityMPH,Wind Direction,Wind SpeedMPH,Gust SpeedMPH,PrecipitationIn,Events,Conditions,WindDirDegrees,DateUTC
12:56 AM,82.0,77.0,85,29.81,9.0,SSW,17.3,24.2,N/A,,Mostly Cloudy,210,2013-06-28 04:56:00
2:56 AM,79.0,75.9,90,29.78,8.0,SSW,17.3,-,N/A,,Mostly Cloudy,200,2013-06-28 06:56:00
3:54 AM,80.6,77.0,89,29.74,9.0,SW,13.8,-,0.00,Rain,Light Rain,230,2013-06-28 07:54:00
3:56 AM,81.0,77.0,88,29.75,9.0,SW,15.0,23.0,0.00,Rain,Light Rain,230,2013-06-28 07:56:00
4:35 AM,80.6,78.8,94,29.72,4.0,SW,19.6,24.2,0.24,Rain,Light Rain,230,2013-06-28 08:35:00
4:56 AM,79.0,77.0,94,29.74,10.0,SSW,19.6,31.1,0.25,,Mostly Cloudy,210,2013-06-28 08:56:00
5:56 AM,80.1,77.0,90,29.73,7.0,SW,17.3,26.5,0.03,,Scattered Clouds,220,2013-06-28 09:56:00
6:56 AM,80.1,78.1,94,29.74,7.0,SW,13.8,23.0,N/A,,Overcast,220,2013-06-28 10:56:00
7:56 AM,81.0,78.1,91,29.73,7.0,SW,13.8,-,N/A,,Overcast,220,2013-06-28 11:56:00
8:56 AM,82.0,78.1,88,29.73,8.0,SW,11.5,-,N/A,,Overcast,230,2013-06-28 12:56:00
9:56 AM,82.9,79.0,88,29.74,7.0,SW,12.7,-,N/A,,Overcast,230,2013-06-28 13:56:00
10:56 AM,82.9,78.1,85,29.73,5.0,SW,11.5,-,0.00,Rain,Light Rain,220,2013-06-28 14:56:00
11:56 AM,79.0,78.1,97,29.75,8.0,SW,4.6,-,0.77,,Overcast,220,2013-06-28 15:56:00
12:56 PM,82.0,79.0,90,29.72,7.0,SW,12.7,16.1,0.00,,Overcast,220,2013-06-28 16:56:00
1:56 PM,87.1,78.1,74,29.70,8.0,SW,17.3,25.3,N/A,,Scattered Clouds,220,2013-06-28 17:56:00
2:56 PM,87.1,78.1,74,29.69,9.0,SW,17.3,25.3,N/A,,Clear,220,2013-06-28 18:56:00
3:56 PM,87.1,78.1,74,29.68,9.0,SSW,13.8,25.3,N/A,,Clear,210,2013-06-28 19:56:00
4:56 PM,86.0,77.0,74,29.68,9.0,South,19.6,25.3,N/A,,Clear,190,2013-06-28 20:56:00
5:56 PM,84.9,77.0,77,29.68,9.0,SSW,18.4,26.5,N/A,,Partly Cloudy,200,2013-06-28 21:56:00
6:56 PM,82.9,77.0,82,29.67,8.0,SSW,21.9,31.1,N/A,,Clear,200,2013-06-28 22:56:00
7:56 PM,82.0,77.0,85,29.70,7.0,SSW,18.4,25.3,N/A,,Mostly Cloudy,210,2013-06-28 23:56:00
9:56 PM,82.0,77.0,85,29.70,8.0,SW,17.3,25.3,N/A,,Partly Cloudy,220,2013-06-29 01:56:00
10:56 PM,82.0,78.1,88,29.72,8.0,SW,16.1,23.0,N/A,,Mostly Cloudy,220,2013-06-29 02:56:00
11:56 PM,82.0,78.1,88,29.70,8.0,SW,11.5,19.6,N/A,,Overcast,230,2013-06-29 03:56:00